Volver al catálogo

STARLINK-11160

ActivoComunicacionesVLEO
NORAD 60125·PAYLOAD·🇺🇸 United States

Lanzado Jun 24, 2024 desde Vandenberg Space Force Base

Loading…

Próximos Pases (próximas 24 horas)

TLE

ActualizadoSource: CelesTrak SupGP

Época: Sep 15, 2026, 02:07 UTC

1 60125C 24118N   26258.08868056 -.00040556  00000+0 -33401-3 0  2587
2 60125  53.1575   7.4505 0000979  83.3856 234.8635 15.69734471    10

Sigue STARLINK-11160 en tiempo real con AllMySat

Download on the App Store